User: anonymous   Login
Location: Unspecified
(0.0000°N, 0.0000°E)
Time: 06:46:42
(UTC+00:00)
Language:

Tiangong 1 - Orbit

View from above orbital plane
View from above orbital plane
View from above satellite
View from above satellite

Ground track
Ground track

The orbit data is extracted from the following two-line orbital elements,

1 37820U 11053A   17207.78896581 +.00023038 +00000-0 +11749-3 0  9990
2 37820 042.7600 317.1617 0019765 356.0634 139.2904 15.80615834334236
Epoch (UTC): 26 July 2017 18:56:06
Eccentricity: 0.0019765
inclination: 42.7600°
perigee height: 315 km
apogee height: 342 km
right ascension of ascending node: 317.1617°
argument of perigee: 356.0634°
revolutions per day: 15.80615834
mean anomaly at epoch: 139.2904°
orbit number at epoch: 33423

The dashed part of the orbit path shows where the satellite is in the earth's shadow,  

DLR